星链-3149 (STARLINK-3149 )

导读 | 星芒AI

STARLINK-3149 是 SpaceX Starlink 卫星互联网项目中的第 3149 颗卫星。该卫星属于“星链”计划的中轨道卫星群,旨在为全球用户提供高速互联网服务。它于 2023 年发射,运行在约 550 公里的轨道高度,采用先进推进系统和激光通信技术,以提高网络效率和减少延迟。作为 Starlink 项目的一部分,STARLINK-3149 有助于扩大覆盖范围,特别是在偏远和网络基础设施不足的地区。

基本信息
目录编号:
49423
目录名称:
STARLINK-3149
国际标识:
2021-104R
轨道中心:
EARTH
卫星名称:
星链-3149
卫星全名:
星链-3149 (STARLINK-3149 )
卫星状态:
在轨 (已飞行1450 天)
发射日期:
2021-11-13 UTC
国别 :
美国 (US)
星等 :
--
轨道信息
数据来源 国际轨道数据
星历时间: 2025-11-01T23:43:27+0800
18小时前
查看轨道信息
半长轴: 6917.87km
偏心率: 0.0001383
轨道倾角: 53.216°
近地点辐角 86.553°
升交点赤经 84.082°
平近点角 273.563°
近地点: 538.778km
远地点: 540.692km
周期: 95.437分钟
每日圈数: 15.088434
详细信息
固有亮度:
5
最大亮度:
2.5
卫星平台:
Starlink v1.5
覆盖范围:
全球
运营商:
太空探索技术公司
运营商所在国:
美国
制造商(研发单位):
太空探索技术公司
制造商所在国:
美国
使用方式:
暂无
卫星简介
星链(Starlink)计划是由太空探索技术公司(SpaceX)提出的一个巨型低轨卫星互联网星座项目,计划在2019年至2024年间在太空搭建由约1.2万颗卫星组成的“星链”网络,其中1584颗将部署在地球上空550千米处的近地轨道,并从2020年开始工作。该卫星仍在工作。
2D轨道图
3D轨道图
轨道高度分析图
轨道倾角分析图
轨道综合分析图
查看轨道综合分析图